Date,Time,Air Temperature,Dewpoint,Windchill,Heat Index,RH,3m Max Wind Speed,3m Mean Wind Speed,3m Wind Direction,Rain,Solar Radiation
,,F,F,F,F,%,MPH,MPH,deg,in,MJ/m^2
2024-04-17,08:35,51.1,33.5,,51.1,50.9,3.5,1.6,107,0.0,0.12246
2024-04-17,08:40,51.5,33.5,,51.5,50.2,4,1.9,95,0.0,0.1284
2024-04-17,08:45,52.2,33.5,,52.2,48.8,5.1,2.3,156,0.0,0.12708
2024-04-17,08:50,52.8,33.8,,52.8,48.3,4.2,1.5,138,0.0,0.12162
2024-04-17,08:55,54,34,,54,46.6,4.5,2.1,358,0.0,0.12414
2024-04-17,09:00,54.5,34.6,,54.5,46.8,4,2.1,79,0.0,0.12396
2024-04-17,09:05,54.9,34.6,,54.9,46.3,3.1,1.5,223,0.0,0.12984
2024-04-17,09:10,55,35,,55,46.6,5.5,2.8,8,0.0,0.14208
2024-04-17,09:15,55.5,35,,55.5,46.0,4.7,2.8,331,0.0,0.15228
2024-04-17,09:20,55.9,35.2,,55.9,45.6,6.8,3.6,356,0.0,0.16308
2024-04-17,09:25,56.6,35.5,,56.6,45.1,6.8,3,359,0.0,0.17028
2024-04-17,09:30,57.6,35.5,,57.6,43.4,7.1,3.8,10,0.0,0.17466
2024-04-17,09:35,58.5,35.6,,58.5,42.2,4.9,2.2,59,0.0,0.17928
2024-04-17,09:40,58.7,35.9,,58.7,42.3,7.1,3.4,30,0.0,0.18384
2024-04-17,09:45,59.7,35.9,,59.7,41.0,4.8,2.2,57,0.0,0.1881
2024-04-17,09:50,60,35.6,,60,40.0,6.2,3.4,39,0.0,0.19236
2024-04-17,09:55,61.1,35.3,,61.1,38.1,7.9,3.3,38,0.0,0.19668
2024-04-17,10:00,62.6,35.1,,62.6,35.7,5.5,1.9,56,0.0,0.20064
2024-04-17,10:05,62.9,35.4,,62.9,35.8,6.6,2.7,85,0.0,0.20484
2024-04-17,10:10,62,35.1,,62,36.6,7.7,4.1,95,0.0,0.20892
2024-04-17,10:15,62.2,34.6,,62.2,35.6,7.7,4.1,256,0.0,0.21264
2024-04-17,10:20,63,34.9,,63,35,5.3,3.4,96,0.0,0.21636
2024-04-17,10:25,63.5,34.9,,63.5,34.5,7.8,3.5,81,0.0,0.21966
2024-04-17,10:30,63.4,35,,63.4,34.7,10.1,6.4,29,0.0,0.2229
2024-04-17,10:35,63.6,34.6,,63.6,33.8,8.4,5.3,90,0.0,0.22632
2024-04-17,10:40,64.9,34.7,,64.9,32.5,6.1,3.2,109,0.0,0.2295
2024-04-17,10:45,64.5,34.9,,64.5,33.1,13.8,7.7,68,0.0,0.23256
2024-04-17,10:50,65.2,34.6,,65.2,32.1,11.2,4.9,36,0.0,0.23538
2024-04-17,10:55,65.4,34.5,,65.4,31.6,13.2,4.8,314,0.0,0.23868
2024-04-17,11:00,65.3,34.8,,65.3,32.1,14.7,8.7,352,0.0,0.2415
2024-04-17,11:05,65.5,34.6,,65.5,31.7,12.1,6.9,24,0.0,0.2439
2024-04-17,11:10,66,34.9,,66,31.5,18.9,7.9,302,0.0,0.24678
2024-04-17,11:15,66.1,34.4,,66.1,30.8,12.1,5.8,283,0.0,0.2493
2024-04-17,11:20,67.2,34.9,,67.2,30.1,12.7,7,315,0.0,0.2517
2024-04-17,11:25,67.7,35.4,,67.7,30.3,12.9,7.1,269,0.0,0.25398
2024-04-17,11:30,67.2,35.7,,67.2,31.1,12.8,8.7,316,0.0,0.2562
2024-04-17,11:35,67.3,35.1,,67.3,30.4,13.4,8.1,331,0.0,0.25806
2024-04-17,11:40,67.2,35,,67.2,30.4,13.4,7.9,292,0.0,0.2598
2024-04-17,11:45,67.4,34.9,,67.4,30.0,10.4,6.9,332,0.0,0.26178
2024-04-17,11:50,67.4,34.4,,67.4,29.4,10.8,6.5,253,0.0,0.26328
2024-04-17,11:55,67.9,34.6,,67.9,29.1,15,4.8,219,0.0,0.26472
2024-04-17,12:00,67.9,34.6,,67.9,29.3,13.2,5.2,289,0.0,0.26598
2024-04-17,12:05,69.9,35.4,,69.9,28.2,16.8,8.5,191,0.0,0.2676
2024-04-17,12:10,68.9,35.6,,68.9,29.3,17.1,10.3,171,0.0,0.26886
2024-04-17,12:15,68.7,34.8,,68.7,28.6,6.7,3.7,194,0.0,0.26952
2024-04-17,12:20,68.8,35.3,,68.8,29.0,17.6,8.3,172,0.0,0.27036
2024-04-17,12:25,68.1,34.7,,68.1,29.1,13.5,6.6,179,0.0,0.27108
2024-04-17,12:30,69.2,34.7,,69.2,28.0,7.1,2.8,262,0.0,0.2715
2024-04-17,12:35,68.9,34.8,,68.9,28.4,11.5,4.7,177,0.0,0.27186
2024-04-17,12:40,69.6,35,,69.6,28.0,9.6,6.1,161,0.0,0.27198
2024-04-17,12:45,69.9,35.2,,69.9,27.9,9.5,5.3,49,0.0,0.27204
2024-04-17,12:50,70.7,35.3,,70.7,27.2,17.6,4.9,176,0.0,0.27228
2024-04-17,12:55,70.4,35.8,,70.4,28.0,18.3,10.4,207,0.0,0.27216
2024-04-17,13:00,70.1,35.1,,70.1,27.6,13.2,6.9,187,0.0,0.26994
2024-04-17,13:05,69.5,35.1,,69.5,28.1,14,8.8,159,0.0,0.25818
2024-04-17,13:10,70.3,35.1,,70.3,27.5,12.9,8.8,248,0.0,0.24456
2024-04-17,13:15,70.3,35.1,,70.3,27.5,14.2,9,204,0.0,0.2244
2024-04-17,13:20,70.2,34.9,,70.2,27.2,12,6.6,208,0.0,0.23586
2024-04-17,13:25,70.1,34.9,,70.1,27.3,7,4.2,44,0.0,0.25188
2024-04-17,13:30,71.5,35.7,,71.5,27,13.8,7.4,170,0.0,0.26292
2024-04-17,13:35,70.9,35.7,,70.9,27.5,10.3,4.4,137,0.0,0.26706
2024-04-17,13:40,71.8,35.8,,71.8,26.8,14.1,9.4,210,0.0,0.26604
2024-04-17,13:45,71.5,35.6,,71.5,26.8,18,9.3,195,0.0,0.26442
2024-04-17,13:50,72,35.7,,72,26.4,15.6,11.3,179,0.0,0.26298
2024-04-17,13:55,71.3,35.2,,71.3,26.6,11.5,7.2,186,0.0,0.26124
2024-04-17,14:00,71.6,34.8,,71.6,25.9,8.3,4.2,215,0.0,0.25962
2024-04-17,14:05,72.1,35.2,,72.1,25.9,11,5.5,165,0.0,0.25818
2024-04-17,14:10,72.1,35.1,,72.1,25.8,15.2,5.4,189,0.0,0.25602
2024-04-17,14:15,72.7,35.1,,72.7,25.2,15.1,9.6,180,0.0,0.25176
2024-04-17,14:20,72.8,35,,72.8,25.1,13.7,6.9,201,0.0,0.24552
2024-04-17,14:25,73,34.8,,73,24.7,11.4,7.4,228,0.0,0.23994
2024-04-17,14:30,72.5,34.4,,72.5,24.7,13.1,6.6,250,0.0,0.23508
2024-04-17,14:35,73.2,34.6,,73.2,24.3,12.2,7.4,146,0.0,0.23028
2024-04-17,14:40,72.6,34.3,,72.6,24.6,13.4,7.5,130,0.0,0.22596
2024-04-17,14:45,73.3,33.9,,73.3,23.6,10,4.3,24,0.0,0.22074
2024-04-17,14:50,72.8,34.3,,72.8,24.4,11.1,5.9,255,0.0,0.21528
2024-04-17,14:55,74.6,34.6,,74.6,23.2,10.2,3.7,63,0.0,0.20886
2024-04-17,15:00,73.8,34.1,,73.8,23.3,12.3,7.9,140,0.0,0.20202
2024-04-17,15:05,74.2,34.5,,74.2,23.5,13.2,7.2,200,0.0,0.19518
2024-04-17,15:10,74.2,34.3,,74.2,23.3,9.9,6,299,0.0,0.18882
2024-04-17,15:15,75,34.4,,75,22.7,12,6.9,265,0.0,0.18396
2024-04-17,15:20,74.7,34.3,,74.7,22.8,11.2,5.2,212,0.0,0.18096
2024-04-17,15:25,75.4,34.1,,75.4,22.2,6.8,2.9,166,0.0,0.18012
2024-04-17,15:30,74.4,33.7,,74.4,22.6,9.6,5.5,129,0.0,0.18
2024-04-17,15:35,75.3,33.5,,75.3,21.7,8.2,4,91,0.0,0.18006
2024-04-17,15:40,75.7,33.8,,75.7,21.7,14.5,5.9,157,0.0,0.17946
2024-04-17,15:45,75.2,33.1,,75.2,21.5,11.8,5.6,164,0.0,0.17844
2024-04-17,15:50,75.2,33.5,,75.2,21.8,9.4,5.5,148,0.0,0.17718
2024-04-17,15:55,75.8,32.9,,75.8,20.8,6.7,3.1,200,0.0,0.17604
2024-04-17,16:00,76.2,33.7,,76.2,21.2,12.5,5.1,254,0.0,0.17412
2024-04-17,16:05,76,32.9,,76,20.7,15.3,6.6,250,0.0,0.17208
2024-04-17,16:10,76.1,31.1,,76.1,19.2,22.5,14.5,248,0.0,0.1692
2024-04-17,16:15,75.3,30.3,,75.3,19.1,18.5,12.6,250,0.0,0.16596
2024-04-17,16:20,75.5,29.5,,75.5,18.3,20.8,10.5,258,0.0,0.16284
2024-04-17,16:25,75.1,29.8,,75.1,18.8,26.3,15.6,260,0.0,0.15906
2024-04-17,16:30,75.8,29.7,,75.8,18.3,25.7,14,244,0.0,0.15534
2024-04-17,16:35,75.2,29.1,,75.2,18.3,21.7,14.4,264,0.0,0.15174
2024-04-17,16:40,75.7,29.1,,75.7,18.0,18.7,10.3,235,0.0,0.14832
2024-04-17,16:45,76.2,28.8,,76.2,17.5,18.7,11.2,257,0.0,0.14484
2024-04-17,16:50,75.7,28.2,,75.7,17.3,22.5,17.5,236,0.0,0.14088
2024-04-17,16:55,75.2,28.2,,75.2,17.6,25,15.9,243,0.0,0.13674
2024-04-17,17:00,75.1,28.3,,75.1,17.7,19.5,13,260,0.0,0.13236
2024-04-17,17:05,75.2,28.1,,75.2,17.5,26.8,13.7,260,0.0,0.12786
2024-04-17,17:10,75.6,28.7,,75.6,17.7,21.5,13.3,234,0.0,0.12282
2024-04-17,17:15,75.6,28.8,,75.6,17.8,23.7,11.9,246,0.0,0.11766
2024-04-17,17:20,75.5,29.1,,75.5,18.1,18.8,13,250,0.0,0.11232
2024-04-17,17:25,75.1,28.7,,75.1,18.0,17.8,12.3,247,0.0,0.10698
2024-04-17,17:30,75.4,29.3,,75.4,18.2,18,11.9,240,0.0,0.10188
2024-04-17,17:35,75.2,29.2,,75.2,18.3,19.6,11.7,249,0.0,0.09672
2024-04-17,17:40,75,29.4,,75,18.6,18.9,13.1,248,0.0,0.09114
2024-04-17,17:45,74.6,29.6,,74.6,19.0,21.3,14.2,262,0.0,0.08574
2024-04-17,17:50,74.7,29.6,,74.7,18.9,16.4,11.2,259,0.0,0.081
2024-04-17,17:55,75,30.1,,75,19.1,15.3,10,233,0.0,0.07548
2024-04-17,18:00,74.6,29.9,,74.6,19.3,20.3,13.3,276,0.0,0.07026
2024-04-17,18:05,74.4,30.2,,74.4,19.5,21.3,13.6,266,0.0,0.06504
2024-04-17,18:10,74.3,30.3,,74.3,19.7,16.3,10.6,267,0.0,0.06006
2024-04-17,18:15,74.4,30.3,,74.4,19.6,14.9,7.9,237,0.0,0.0552
2024-04-17,18:20,74.2,30.3,,74.2,19.9,16.3,10.2,264,0.0,0.0504
2024-04-17,18:25,74.1,30.1,,74.1,19.7,15.7,9.5,274,0.0,0.0459
2024-04-17,18:30,73.9,29.9,,73.9,19.7,20.1,12.7,269,0.0,0.04134
2024-04-17,18:35,73.7,29.8,,73.7,19.8,17.3,10.2,266,0.0,0.0372
2024-04-17,18:40,73.4,29.8,,73.4,20.0,13.6,8.5,266,0.0,0.03288
2024-04-17,18:45,73.2,30,,73.2,20.2,13,8.5,261,0.0,0.0285
2024-04-17,18:50,73,29.3,,73,19.8,14.3,10.7,266,0.0,0.02448
2024-04-17,18:55,73.1,28.4,,73.1,19.0,18.8,12.4,249,0.0,0.02028
2024-04-17,19:00,72.4,28.7,,72.4,19.7,16.6,7.9,250,0.0,0.0168
2024-04-17,19:05,72.1,28.5,,72.1,19.7,14,7.7,249,0.0,0.01056
2024-04-17,19:10,71.8,28,,71.8,19.6,12.4,8.6,252,0.0,0.00348
2024-04-17,19:15,70.8,28,,70.8,20.2,7.9,5.5,240,0.0,0.00252
2024-04-17,19:20,70.2,27.8,,70.2,20.5,7.5,4.8,233,0.0,0.00162
2024-04-17,19:25,70,27.3,,70,20.2,12.3,8.3,238,0.0,0.00096
2024-04-17,19:30,69.6,27.4,,69.6,20.6,7.8,5.7,250,0.0,0.00048
2024-04-17,19:35,69.1,27.1,,69.1,20.7,6.4,4,245,0.0,0.00018
2024-04-17,19:40,68.8,27.1,,68.8,20.9,6.3,4.6,237,0.0,0
2024-04-17,19:45,68.5,26.7,,68.5,20.7,6.7,5,234,0.0,0
2024-04-17,19:50,66.7,26.7,,66.7,22.1,4.5,2.7,231,0.0,0
2024-04-17,19:55,66,26.5,,66,22.4,3.5,1.7,232,0.0,0
2024-04-17,20:00,65.8,26.4,,65.8,22.5,1.5,0.9,224,0.0,0
2024-04-17,20:05,65.2,25.7,,65.2,22.2,2.1,1.3,192,0.0,0
2024-04-17,20:10,63.6,26.2,,63.6,24.1,1.7,1.1,96,0.0,0
2024-04-17,20:15,64.1,25.8,,64.1,23.2,1.3,0.8,66,0.0,0
2024-04-17,20:20,63.2,25.6,,63.2,23.8,1.3,0.7,13,0.0,0
2024-04-17,20:25,62.9,25.4,,62.9,23.8,2.2,1.4,149,0.0,0
2024-04-17,20:30,60.5,26.2,,60.5,26.8,4.2,1.8,116,0.0,0
2024-04-17,20:35,60.7,26.1,,60.7,26.6,6,2.4,11,0.0,0
2024-04-17,20:40,61.5,25,,61.5,24.7,4.9,3.5,115,0.0,0
2024-04-17,20:45,56.3,26.8,,56.3,31.9,5.4,3,9,0.0,0
2024-04-17,20:50,57.8,26.1,,57.8,29.4,2.5,1.9,116,0.0,0
2024-04-17,20:55,55.7,26,,55.7,31.7,3.4,1.9,19,0.0,0
2024-04-17,21:00,55.4,25.7,,55.4,31.5,4.2,1.9,25,0.0,0
2024-04-17,21:05,55,26.7,,55,33.4,4.3,2.5,36,0.0,0
2024-04-17,21:10,54.6,27,,54.6,34.3,3.8,2.4,20,0.0,0
2024-04-17,21:15,56.4,26.1,,56.4,31.0,4.1,2.8,101,0.0,0
2024-04-17,21:20,51.3,26.5,,51.3,37.9,2.7,1.2,101,0.0,0
2024-04-17,21:25,53,25.6,,53,34.3,5.7,2.7,44,0.0,0
2024-04-17,21:30,52.7,25.7,,52.7,34.8,3.4,2.7,4,0.0,0
2024-04-17,21:35,52.2,26.8,,52.2,37.1,4.5,2.7,73,0.0,0
2024-04-17,21:40,53.6,25.1,,53.6,33.0,3.9,2.3,120,0.0,0
2024-04-17,21:45,51.7,26.2,,51.7,36.9,5.1,2.8,16,0.0,0
2024-04-17,21:50,51.7,26.8,,51.7,37.9,4.3,3.1,6,0.0,0
2024-04-17,21:55,51.6,27,,51.6,38.3,3.2,2,57,0.0,0
2024-04-17,22:00,51.3,26.1,,51.3,37.3,3.6,1.9,139,0.0,0
2024-04-17,22:05,50.9,26.2,,50.9,38.0,3.4,2.7,56,0.0,0
2024-04-17,22:10,49.6,25.9,,49.6,39.3,4.2,2.6,174,0.0,0
2024-04-17,22:15,49,25.2,,49,39.3,3.4,1.9,176,0.0,0
2024-04-17,22:20,48.8,25.1,,48.8,39.2,1.5,0.8,333,0.0,0
2024-04-17,22:25,49.5,24.5,,49.5,37.4,2.1,1.2,37,0.0,0
2024-04-17,22:30,48.5,24.7,,48.5,39.1,4,2.8,346,0.0,0
2024-04-17,22:35,47.7,26.3,,47.7,43.0,3.6,2.5,19,0.0,0
2024-04-17,22:40,46.8,26.5,,46.8,44.9,4,2.3,0,0.0,0
2024-04-17,22:45,46.8,27,,46.8,45.7,2.8,2.1,12,0.0,0
2024-04-17,22:50,47.9,26.5,,47.9,43.1,4.6,3.8,359,0.0,0
2024-04-17,22:55,46.5,27.2,,46.5,46.8,3.7,3,5,0.0,0
2024-04-17,23:00,44.9,27.7,,44.9,50.7,2.6,1.3,337,0.0,0
2024-04-17,23:05,46,27.8,,46,48.9,4.4,1.8,84,0.0,0
2024-04-17,23:10,44.3,26.8,,44.3,49.9,4.3,2.1,294,0.0,0
2024-04-17,23:15,46.1,27.9,,46.1,48.8,3.5,1.6,355,0.0,0
2024-04-17,23:20,44,26.6,,44,50.2,3.8,1.7,50,0.0,0
2024-04-17,23:25,44.9,25.4,,44.9,46.0,5.2,3.9,68,0.0,0
2024-04-17,23:30,42.3,25.2,,42.3,50.3,3.9,1.9,0,0.0,0
2024-04-17,23:35,42.5,25.6,,42.5,50.8,3.5,1.7,327,0.0,0
2024-04-17,23:40,43.6,26.6,,43.6,50.9,3.7,2.6,339,0.0,0
2024-04-17,23:45,42.4,28.1,,42.4,56.8,3,2.1,289,0.0,0
2024-04-17,23:50,43,30.6,,43,61.4,2.4,1.3,318,0.0,0
2024-04-17,23:55,42.2,30.5,,42.2,63,3.3,2.1,304,0.0,0
2024-04-18,00:00,42.1,30,,42.1,61.9,2.8,1.9,135,0.0,0
2024-04-18,00:05,41.2,29,,41.2,61.7,3.8,1.5,268,0.0,0
2024-04-18,00:10,42,29.8,,42,61.7,2.6,1.5,62,0.0,0
2024-04-18,00:15,42.2,28.7,,42.2,58.5,2.9,2.2,139,0.0,0
2024-04-18,00:20,42.4,27.1,,42.4,54.3,1.6,1.1,124,0.0,0
2024-04-18,00:25,40.7,27.1,,40.7,58.0,1.2,0.7,272,0.0,0
2024-04-18,00:30,41,27.2,,41,57.5,5.6,4.3,352,0.0,0
2024-04-18,00:35,40.9,27.4,,40.9,58.3,5,2.5,38,0.0,0
2024-04-18,00:40,41.4,26.4,,41.4,55.0,2.5,1.9,79,0.0,0
2024-04-18,00:45,41.2,24.6,,41.2,51.5,2.2,1.4,144,0.0,0
2024-04-18,00:50,39.8,25.6,,39.8,56.5,2.3,1,140,0.0,0
2024-04-18,00:55,40.6,26.1,,40.6,56.0,2.1,1.3,187,0.0,0
2024-04-18,01:00,41.6,25.8,,41.6,53.2,4.1,2.9,341,0.0,0
2024-04-18,01:05,41.4,25.5,,41.4,52.8,4.8,3.8,342,0.0,0
2024-04-18,01:10,40.3,27.1,,40.3,59.0,4.4,3.4,315,0.0,0
2024-04-18,01:15,39.3,27.6,,39.3,62.8,3.1,1.8,121,0.0,0
2024-04-18,01:20,40.5,26.3,,40.5,56.5,2.8,2.1,92,0.0,0
2024-04-18,01:25,39.8,25.4,,39.8,55.9,1.1,0.6,74,0.0,0
2024-04-18,01:30,39.2,24.9,,39.2,56,1.7,0.9,324,0.0,0
2024-04-18,01:35,38.9,25.6,,38.9,58.5,3.1,1.6,287,0.0,0
2024-04-18,01:40,38.4,27.5,,38.4,64.5,2.7,1.3,295,0.0,0
2024-04-18,01:45,38.1,27.7,,38.1,65.9,2.1,1.1,199,0.0,0
2024-04-18,01:50,38.1,27.8,,38.1,66.2,2.5,1.4,145,0.0,0
2024-04-18,01:55,38.8,26.8,,38.8,61.8,3.2,2.1,125,0.0,0
2024-04-18,02:00,39.8,25.5,,39.8,56.3,3,2.2,104,0.0,0
2024-04-18,02:05,39,24.1,,39,54.8,2.9,2.1,124,0.0,0
2024-04-18,02:10,37.9,23.1,,37.9,54.9,3,1.7,163,0.0,0
2024-04-18,02:15,36.9,23.7,,36.9,58.4,2.1,1.7,254,0.0,0
2024-04-18,02:20,37,24.1,,37,59.3,2,1.6,256,0.0,0
2024-04-18,02:25,36.8,24.4,,36.8,60.5,1.7,1.4,258,0.0,0
2024-04-18,02:30,36.4,24,,36.4,60.3,1.7,0.9,303,0.0,0
2024-04-18,02:35,36.2,24,,36.2,60.9,1.6,1.3,325,0.0,0
2024-04-18,02:40,36.7,24.2,,36.7,60.3,1,0.6,29,0.0,0
2024-04-18,02:45,36.6,24.3,,36.6,60.7,1.1,0.5,81,0.0,0
2024-04-18,02:50,35.7,24.3,,35.7,63.0,2.2,0.7,287,0.0,0
2024-04-18,02:55,35.6,24,,35.6,62.4,0.6,0.4,66,0.0,0
2024-04-18,03:00,35.6,24,,35.6,62.3,2,1.3,308,0.0,0
2024-04-18,03:05,36,23.6,,36,60.3,3.3,2.6,5,0.0,0
2024-04-18,03:10,35.6,23.1,,35.6,60.2,3.4,2.6,10,0.0,0
2024-04-18,03:15,35.4,23.7,,35.4,61.9,2.4,1.5,59,0.0,0
2024-04-18,03:20,35.6,24,,35.6,62.3,1.2,0.8,43,0.0,0
2024-04-18,03:25,35.1,23.2,,35.1,61.5,1.6,0.9,176,0.0,0
2024-04-18,03:30,34.6,23.7,,34.6,63.9,2.8,2.1,195,0.0,0
2024-04-18,03:35,34.5,23.3,,34.5,63.4,2.3,1.5,177,0.0,0
2024-04-18,03:40,34.5,23.6,,34.5,64,2.1,1.6,223,0.0,0
2024-04-18,03:45,34.1,23.8,,34.1,65.5,2.3,1.5,279,0.0,0
2024-04-18,03:50,34.2,24.2,,34.2,66.4,0.6,0.4,93,0.0,0
2024-04-18,03:55,34.2,24.5,,34.2,67.3,1.5,0.8,122,0.0,0
2024-04-18,04:00,33.6,24.5,,33.6,69.0,1.9,1.3,150,0.0,0
2024-04-18,04:05,34.8,24.2,,34.8,64.8,2.7,1.8,118,0.0,0
2024-04-18,04:10,35.9,23.1,,35.9,59.5,2.9,2.2,105,0.0,0
2024-04-18,04:15,34.2,22.9,,34.2,62.9,2.4,1,33,0.0,0
2024-04-18,04:20,34,22.9,,34,63.4,2.5,2.2,342,0.0,0
2024-04-18,04:25,33.8,23.2,,33.8,64.9,3.7,2.9,326,0.0,0
2024-04-18,04:30,32.8,24.2,,32.8,70.5,4.3,3.5,267,0.0,0
2024-04-18,04:35,32.4,25.5,,32.4,75.5,3.2,2,257,0.0,0
2024-04-18,04:40,32.2,25.6,,32.2,76.3,1,0.5,348,0.0,0
2024-04-18,04:45,32.8,26.2,,32.8,76.3,2.1,1.3,20,0.0,0
2024-04-18,04:50,32.5,26.5,,32.5,78.2,3.2,2.3,19,0.0,0
2024-04-18,04:55,31.9,25.4,,31.9,76.5,3.2,1.7,38,0.0,0
2024-04-18,05:00,32.9,25.1,,32.9,72.5,2.9,2.1,70,0.0,0
2024-04-18,05:05,32.7,24.5,,32.7,71.5,2.5,2,46,0.0,0
2024-04-18,05:10,33.5,24.6,,33.5,69.7,2.1,1.3,86,0.0,0
2024-04-18,05:15,33.1,24.4,,33.1,70.1,3.1,1.7,149,0.0,0
2024-04-18,05:20,32.1,25.4,,32.1,75.8,1.4,0.6,278,0.0,0
2024-04-18,05:25,32.4,25.1,,32.4,74.1,3.9,2.8,298,0.0,0
2024-04-18,05:30,32,26.2,,32,78.9,4.1,2.6,268,0.0,0
2024-04-18,05:35,31.8,26.7,,31.8,81.1,2.7,2.1,295,0.0,0
2024-04-18,05:40,31.3,26.8,,31.3,83.1,1.5,0.9,23,0.0,0
2024-04-18,05:45,31.6,26.7,,31.6,81.9,2.6,1.3,115,0.0,0
2024-04-18,05:50,31.8,26.5,,31.8,80.5,2.6,1.8,155,0.0,0
2024-04-18,05:55,31.3,26.5,,31.3,82.1,3.1,2.4,199,0.0,0
2024-04-18,06:00,30.8,26.1,,30.8,82.3,3.3,2.6,252,0.0,0.00012
2024-04-18,06:05,30.8,26,,30.8,82.1,2.3,1.8,231,0.0,0.00048
2024-04-18,06:10,30.8,25.8,,30.8,81.3,1.1,0.6,142,0.0,0.00102
2024-04-18,06:15,31.1,25.6,,31.1,79.8,1.3,0.8,102,0.0,0.00174
2024-04-18,06:20,31.2,25.3,,31.2,78.5,1.3,0.6,122,0.0,0.00246
2024-04-18,06:25,32,24.9,,32,74.6,2.8,1.9,62,0.0,0.0033
2024-04-18,06:30,32.1,24.9,,32.1,74.3,3.5,2.6,53,0.0,0.00444
2024-04-18,06:35,31.4,25.4,,31.4,78.2,2.9,2.4,335,0.0,0.00528
2024-04-18,06:40,32.6,25.9,,32.6,76.0,2.4,2,7,0.0,0.01362
2024-04-18,06:45,33.2,26.6,,33.2,76.6,1.4,1,115,0.0,0.02298
2024-04-18,06:50,33.2,26.6,,33.2,76.5,2,1.5,253,0.0,0.02622
2024-04-18,06:55,34.1,27.4,,34.1,76.0,2.7,1.3,269,0.0,0.02946
2024-04-18,07:00,35.4,27.6,,35.4,72.9,3.2,1.6,292,0.0,0.03384
2024-04-18,07:05,36.3,29,,36.3,74.5,3,2.2,273,0.0,0.0363
2024-04-18,07:10,37.5,28.8,,37.5,70.4,2.8,1.6,308,0.0,0.03522
2024-04-18,07:15,38.4,28.8,,38.4,68.1,3.2,1.1,321,0.0,0.03576
2024-04-18,07:20,39.3,28.1,,39.3,63.8,3.4,1.9,279,0.0,0.04308
2024-04-18,07:25,40.7,28.4,,40.7,61.3,3.9,2,286,0.0,0.0489
2024-04-18,07:30,42.4,29.2,,42.4,59.4,4.1,2.7,322,0.0,0.05442
2024-04-18,07:35,43.7,29.1,,43.7,56.2,5,3.2,333,0.0,0.0603
2024-04-18,07:40,44.8,29.3,,44.8,54.3,4.5,3.4,9,0.0,0.06774
2024-04-18,07:45,46.1,29.8,,46.1,52.8,5.1,3.3,2,0.0,0.07422
2024-04-18,07:50,47,30.2,,47,51.8,5.1,2.8,341,0.0,0.07728
2024-04-18,07:55,47.8,30.3,,47.8,50.5,2.7,1.5,264,0.0,0.07662
2024-04-18,08:00,48.8,30.2,,48.8,48.4,4.9,2.6,321,0.0,0.08664
2024-04-18,08:05,50.2,30.2,,50.2,46.0,5.4,3.1,320,0.0,0.09606
2024-04-18,08:10,50.3,30.4,,50.3,46.2,5.3,3.2,284,0.0,0.09198
2024-04-18,08:15,51.4,30.3,,51.4,44.3,4.4,2.3,261,0.0,0.09576
2024-04-18,08:20,52.2,30.2,,52.2,42.6,3,1.6,274,0.0,0.10086
2024-04-18,08:25,52.6,30,,52.6,41.8,5.9,2.9,144,0.0,0.10518
2024-04-18,08:30,52.8,29.9,,52.8,41.2,5.8,3,161,0.0,0.09732
2024-04-18,08:35,53.3,29.9,,53.3,40.5,3.7,1.9,69,0.0,0.09624
2024-04-18,08:40,53.4,29.8,,53.4,40.3,5.1,2.8,148,0.0,0.09408
2024-04-18,08:45,54,30.3,,54,40.1,7.8,3.6,217,0.0,0.13248
2024-04-18,08:50,54,30.5,,54,40.5,6.6,4.7,215,0.0,0.13596
2024-04-18,08:55,54.6,30.8,,54.6,40.0,7.9,4.3,205,0.0,0.11814
2024-04-18,09:00,54.3,30.6,,54.3,40.2,7,4.8,221,0.0,0.09774
2024-04-18,09:05,55.3,30.6,,55.3,38.8,6.7,3.8,178,0.0,0.10686
2024-04-18,09:10,55.5,30.3,,55.5,38.1,5.5,2.8,170,0.0,0.11136
2024-04-18,09:15,55.8,30.7,,55.8,38.2,6.3,3.3,215,0.0,0.15894
2024-04-18,09:20,56.8,31.3,,56.8,37.7,6.3,2.9,212,0.0,0.1524
2024-04-18,09:25,57.7,31.3,,57.7,36.6,5.5,2.2,109,0.0,0.18228
2024-04-18,09:30,58,31.6,,58,36.7,6.6,3.7,174,0.0,0.13848
2024-04-18,09:35,57.6,31.6,,57.6,37.2,6.7,4.4,233,0.0,0.1422
2024-04-18,09:40,58,31.5,,58,36.5,7.4,3.8,196,0.0,0.10956
2024-04-18,09:45,57.9,31.2,,57.9,36.1,6.3,3.9,167,0.0,0.12198
2024-04-18,09:50,58.9,31.1,,58.9,34.8,4,2.1,200,0.0,0.13914
2024-04-18,09:55,58.9,31.3,,58.9,35.0,7.2,2.8,221,0.0,0.11334
2024-04-18,10:00,58.7,31.6,,58.7,35.7,6.1,4.3,255,0.0,0.12738
2024-04-18,10:05,59.9,31.8,,59.9,34.4,7.3,2.9,203,0.0,0.14286
2024-04-18,10:10,60.6,31.7,,60.6,33.5,6.6,3.5,180,0.0,0.14394
2024-04-18,10:15,61.6,31.9,,61.6,32.6,5.9,3.3,205,0.0,0.1986
2024-04-18,10:20,62.4,32.6,,62.4,32.7,9.1,4.4,196,0.0,0.22776
2024-04-18,10:25,62.2,32.6,,62.2,32.9,7.7,4.2,249,0.0,0.16938
2024-04-18,10:30,62.8,32.7,,62.8,32.3,6.7,3.7,274,0.0,0.16236
2024-04-18,10:35,64,33.1,,64,31.5,5.6,3.2,246,0.0,0.22794
2024-04-18,10:40,65.4,34.1,,65.4,31.1,7.5,2.8,148,0.0,0.23868
2024-04-18,10:45,65.1,34.1,,65.1,31.5,7.4,3.8,151,0.0,0.23898
2024-04-18,10:50,66,34.6,,66,31.1,5.7,2.8,229,0.0,0.24054
2024-04-18,10:55,66,34.9,,66,31.5,12.4,6.7,198,0.0,0.24072
2024-04-18,11:00,66.1,34.6,,66.1,31.0,8.6,4.7,190,0.0,0.24594
2024-04-18,11:05,66.6,34.8,,66.6,30.7,9.4,5.3,234,0.0,0.24816
2024-04-18,11:10,66.7,35,,66.7,30.9,7.6,3.8,321,0.0,0.25362
2024-04-18,11:15,68.1,35.4,,68.1,29.8,7.2,3.6,209,0.0,0.25344
2024-04-18,11:20,68.8,35.7,,68.8,29.6,10.1,4.7,176,0.0,0.2541
2024-04-18,11:25,69.4,35.7,,69.4,28.9,5.6,2.2,194,0.0,0.25536
2024-04-18,11:30,69,35.9,,69,29.5,10.1,4.1,215,0.0,0.2583
2024-04-18,11:35,69.5,35.9,,69.5,29.0,12.2,6.4,194,0.0,0.25812
2024-04-18,11:40,69.7,35.8,,69.7,28.7,7.8,3.7,332,0.0,0.26184
2024-04-18,11:45,70.6,36.2,,70.6,28.4,7.2,3.6,47,0.0,0.26382
2024-04-18,11:50,70.5,36.2,,70.5,28.4,11.1,6.2,137,0.0,0.2664
2024-04-18,11:55,70.9,35.9,,70.9,27.7,10.5,5.6,164,0.0,0.26802
2024-04-18,12:00,71.3,36,,71.3,27.4,8.1,3.5,181,0.0,0.26988
2024-04-18,12:05,71.5,36.2,,71.5,27.5,16,7.4,159,0.0,0.26952
2024-04-18,12:10,70.9,35.9,,70.9,27.7,12.6,6.5,142,0.0,0.27216
2024-04-18,12:15,71.9,36,,71.9,26.9,13.5,6.9,171,0.0,0.25698
2024-04-18,12:20,71.8,35.7,,71.8,26.7,17.5,9.9,203,0.0,0.25344
2024-04-18,12:25,71.3,35.4,,71.3,26.9,12.2,6.9,278,0.0,0.26622
2024-04-18,12:30,72.1,35.4,,72.1,26.1,10.7,3.7,139,0.0,0.26178
2024-04-18,12:35,72.1,35.6,,72.1,26.3,12.4,6.8,193,0.0,0.23112
2024-04-18,12:40,72.9,35.7,,72.9,25.7,13.9,5.8,243,0.0,0.25572
2024-04-18,12:45,73,35.8,,73,25.7,11.5,5.7,238,0.0,0.26964
2024-04-18,12:50,73.5,36.2,,73.5,25.6,15.5,3.5,142,0.0,0.25938
2024-04-18,12:55,72,35.7,,72,26.4,13.3,5.9,131,0.0,0.23694
2024-04-18,13:00,72.9,35.7,,72.9,25.7,18.6,11.9,175,0.0,0.25032
2024-04-18,13:05,73,35.3,,73,25.2,17.5,11.6,195,0.0,0.25026
2024-04-18,13:10,72.9,34.9,,72.9,24.9,14.3,5.9,216,0.0,0.24246
2024-04-18,13:15,73.6,35.4,,73.6,24.8,10.9,6.3,163,0.0,0.22752
2024-04-18,13:20,75.1,35.9,,75.1,24.1,10.7,5.2,193,0.0,0.22752
2024-04-18,13:25,74.6,36.2,,74.6,24.8,10,4.7,148,0.0,0.24282
2024-04-18,13:30,74.3,35.5,,74.3,24.4,13.1,5.8,157,0.0,0.21054
2024-04-18,13:35,74.2,35.9,,74.2,24.8,18.7,10.3,164,0.0,0.19446
2024-04-18,13:40,73.3,35.2,,73.3,24.9,15.4,6.7,151,0.0,0.16434
2024-04-18,13:45,73.5,34.8,,73.5,24.3,13.4,6.7,190,0.0,0.1614
2024-04-18,13:50,74,34.6,,74,23.6,6.6,2.9,235,0.0,0.20022
2024-04-18,13:55,74.3,35,,74.3,23.9,10.7,6.6,196,0.0,0.20838
2024-04-18,14:00,75.6,35.4,,75.6,23.3,10.5,5.5,159,0.0,0.23454
2024-04-18,14:05,75.5,35.6,,75.5,23.5,15.6,7.8,164,0.0,0.24456
2024-04-18,14:10,75.6,35.3,,75.6,23.1,8.6,3.4,307,0.0,0.231
2024-04-18,14:15,76.1,35.7,,76.1,23.1,9.2,5.2,253,0.0,0.1593
2024-04-18,14:20,75.5,35.5,,75.5,23.4,6.8,2.4,261,0.0,0.13644
2024-04-18,14:25,75.6,35.5,,75.6,23.3,7.2,3.2,223,0.0,0.15792
2024-04-18,14:30,75.3,35.7,,75.3,23.6,6.3,4,332,0.0,0.16236
2024-04-18,14:35,75.6,35.6,,75.6,23.3,5.8,3.2,349,0.0,0.16272
2024-04-18,14:40,76.2,35.7,,76.2,23.1,7.9,3.8,24,0.0,0.16554
2024-04-18,14:45,74.8,35.5,,74.8,23.9,11,6.7,305,0.0,0.15306
2024-04-18,14:50,75.6,34.7,,75.6,22.6,5.6,3.2,286,0.0,0.14334
2024-04-18,14:55,75.9,35.1,,75.9,22.7,8.5,4.7,279,0.0,0.1692
2024-04-18,15:00,76.3,34.6,,76.3,21.9,6.3,3.9,234,0.0,0.16296
2024-04-18,15:05,77.6,33.5,,77.6,20.1,14.2,8.6,204,0.0,0.19482
2024-04-18,15:10,77.4,32.8,,77.4,19.7,12.2,5.6,214,0.0,0.16254
2024-04-18,15:15,76.4,32.8,,76.4,20.4,9.8,6.2,189,0.0,0.15138
2024-04-18,15:20,77,32.6,,77,19.9,7.5,3.7,199,0.0,0.1263
2024-04-18,15:25,76.5,32.6,,76.5,20.2,9.2,6.2,256,0.0,0.14304
2024-04-18,15:30,76.5,31.9,,76.5,19.6,17.3,10.1,284,0.0,0.1545
2024-04-18,15:35,76.2,32.2,,76.2,20.0,16.5,9.4,288,0.0,0.14706
2024-04-18,15:40,77,32.6,,77,19.8,17,8.8,267,0.0,0.17268
2024-04-18,15:45,77.1,33.1,,77.1,20.1,13.7,7.7,251,0.0,0.14244
2024-04-18,15:50,76.1,32.6,,76.1,20.4,16.4,11.1,265,0.0,0.11232
2024-04-18,15:55,75.8,32.3,,75.8,20.4,16.7,10.8,254,0.0,0.09576
2024-04-18,16:00,76.2,31.8,,76.2,19.7,21.1,11.7,238,0.0,0.12108
2024-04-18,16:05,76.6,31.9,,76.6,19.5,17.3,10.4,247,0.0,0.12642
2024-04-18,16:10,76,31.8,,76,19.8,14.1,9.7,252,0.0,0.11916
2024-04-18,16:15,76.4,31.7,,76.4,19.5,13.1,8.4,268,0.0,0.1257
2024-04-18,16:20,77.2,31.9,,77.2,19.2,11.3,7.4,237,0.0,0.16584
2024-04-18,16:25,77.5,32.5,,77.5,19.4,13.8,8,259,0.0,0.16974
2024-04-18,16:30,77.9,32,,77.9,18.8,18,8.8,243,0.0,0.15348
2024-04-18,16:35,77.2,31.5,,77.2,18.8,17.4,12.9,234,0.0,0.1317
2024-04-18,16:40,77.4,31.3,,77.4,18.5,14.7,10.2,239,0.0,0.13872
2024-04-18,16:45,76.3,31.3,,76.3,19.2,13.5,8.2,261,0.0,0.07614
2024-04-18,16:50,76,31.3,,76,19.4,17.6,11.3,223,0.0,0.07422
2024-04-18,16:55,76.1,31.6,,76.1,19.6,13.9,8.4,242,0.0,0.0714
2024-04-18,17:00,75.9,31.7,,75.9,19.8,13.5,8,257,0.0,0.08598
2024-04-18,17:05,76,31.7,,76,19.7,17.4,10.7,261,0.0,0.0783
2024-04-18,17:10,76.1,31.4,,76.1,19.4,16.8,11.4,263,0.0,0.102
2024-04-18,17:15,77.4,32.3,,77.4,19.2,16.2,10,251,0.0,0.1479
2024-04-18,17:20,76.9,32.1,,76.9,19.5,17,11.3,263,0.0,0.084
2024-04-18,17:25,76.8,32.1,,76.8,19.5,17.8,9.5,258,0.0,0.09132
2024-04-18,17:30,76.6,31.7,,76.6,19.3,12.8,9.1,210,0.0,0.06054
2024-04-18,17:35,76.1,30.1,,76.1,18.4,15.3,9.5,211,0.0,0.04506
2024-04-18,17:40,76,29.5,,76,18.0,20,13,211,0.0,0.045
2024-04-18,17:45,75.9,29.6,,75.9,18.2,15.2,9.7,241,0.0,0.04884
2024-04-18,17:50,75.8,28.7,,75.8,17.6,15.5,11.9,233,0.0,0.0486
2024-04-18,17:55,75.9,29.1,,75.9,17.8,15.6,10.9,230,0.0,0.05718